#timestamp,LO_Frequency,Hit,StdDev 
1512032415.7,286047006.4,N
1512032435.5,286047009.8,Y
1512032455.4,286047006.3,P
1512032475.2,286047005.5,P
1512032495.0,286047002.8,P
1512032495.9,286047002.8,N
1512032515.7,286046996.6,N
1512032535.6,286046995.6,N
1512032555.4,286046992.4,N
1512032575.2,286046993.2,N
1512032595.1,286046994.6,N
1512032596.0,286046994.6,N
1512032615.8,286046992.1,N
1512032635.6,286046996.3,N
1512032655.5,286046994.0,N
1512032675.3,286046992.3,N
1512032695.1,286046994.1,N
1512032715.9,286046999.5,N
1512032735.7,286046998.4,N
1512032755.5,286046999.7,N
1512032775.4,286047002.0,N
1512032795.2,286047000.3,N
1512032815.0,286047002.3,N
1512032815.9,286047002.3,N
1512032835.8,286046999.8,N
1512032855.6,286047001.0,N
1512032875.4,286047002.4,N
1512032895.2,286046998.2,N
1512032915.1,286046998.5,N
1512032916.0,286046998.5,N
1512032935.8,286046998.6,N
1512032955.6,286046995.3,N
1512032975.5,286046997.7,N
1512032995.3,286046994.9,N
1512033015.1,286046998.0,N
1512033035.9,286046997.9,N
1512033055.7,286046997.1,N
1512033075.5,286046999.2,N
1512033095.4,286046997.2,N
1512033115.2,286046998.5,N
1512033135.0,286046998.4,N
1512033135.9,286046998.4,N
1512033155.8,286046998.3,N
1512033175.6,286046995.7,N
1512033195.4,286046994.3,N
1512033215.3,286046992.5,Y
1512033235.1,286046993.6,P
1512033236.0,286046993.6,N
1512033255.8,286046991.8,P
1512033275.7,286046990.6,Y
1512033295.5,286046995.0,P
1512033315.3,286046994.9,P
1512033335.2,286046993.7,P
1512033355.9,286046994.4,Y
1512033375.7,286046998.7,P
1512033395.6,286046998.6,N
1512033415.4,286046998.0,N
1512033435.2,286046995.7,N
1512033455.1,286046995.9,N
1512033456.0,286046995.9,N
1512033475.8,286046993.6,Y
1512033495.6,286046995.6,P
1512033515.5,286046997.5,P
1512033535.3,286046999.3,N
1512033555.1,286046999.2,N
1512033575.9,286046996.5,N
1512033595.7,286046998.6,N
1512033615.5,286046999.8,N
1512033635.4,286047001.1,N
1512033655.2,286047000.2,N
1512033675.0,286047000.3,N
1512033675.9,286047000.3,N
1512033695.7,286047002.4,N
1512033715.6,286047002.7,N
1512033735.4,286047004.0,N
1512033755.2,286047003.0,N
1512033775.1,286047001.7,N
1512033776.0,286047001.7,N
1512033795.8,286047002.2,N
1512033815.6,286046998.7,N
1512033835.5,286047000.7,N
1512033855.3,286046998.6,N
1512033875.1,286046996.6,N
1512033895.9,286047000.0,N
1512033915.7,286047000.8,N
1512033935.5,286046999.8,N
1512033955.4,286047002.5,N
1512033975.2,286047002.1,N
1512033995.0,286047003.4,N
1512033995.9,286047003.4,N
1512034015.7,286047004.4,N
1512034035.6,286047003.5,N
1512034055.4,286047003.3,N
1512034075.2,286047004.8,N
1512034095.1,286047008.9,Y
1512034096.0,286047008.9,P
1512034115.8,286047006.4,N
1512034135.6,286047008.7,N
1512034155.5,286047008.9,N
1512034175.3,286047007.8,N
1512034195.1,286047008.1,N
1512034215.9,286047004.9,N
1512034235.7,286047004.9,N
1512034255.5,286047005.8,N
1512034275.4,286047007.2,Y
1512034295.2,286046999.8,P
1512034315.0,286047002.1,N
1512034315.9,286047002.1,N
1512034335.8,286047003.4,N
1512034355.6,286047002.3,N
1512034375.4,286047001.3,N
1512034395.3,286047003.5,N
1512034415.1,286047000.5,N
1512034416.0,286047000.5,N
1512034435.8,286046998.2,N
1512034455.7,286046998.4,N
1512034475.5,286046995.2,N
1512034495.3,286046995.8,N
1512034515.1,286046993.5,N
1512034535.9,286046994.7,N
1512034555.7,286046993.7,N
1512034575.5,286046995.9,N
1512034595.4,286046993.6,N
1512034615.2,286046996.2,N
1512034635.0,286046993.4,N
1512034635.9,286046993.4,N
1512034655.8,286046993.7,N
1512034675.6,286046995.6,N
1512034695.4,286046996.1,N
1512034715.3,286046994.6,N
1512034735.1,286046990.4,N
1512034736.0,286046990.4,N
1512034755.8,286046989.7,N
1512034775.7,286046985.8,Y
1512034795.5,286046984.7,P
1512034815.3,286046982.2,N
1512034835.2,286046982.1,N
1512034855.9,286046983.0,N
1512034875.7,286046980.5,Y
1512034895.6,286046994.6,P
1512034915.4,286046993.2,N
1512034935.2,286046990.4,N
1512034955.1,286046991.5,N
1512034956.0,286046991.5,N
1512034975.8,286046994.3,N
1512034995.6,286046991.8,N
1512035015.5,286046992.6,N
1512035035.3,286046994.8,N
1512035055.1,286046992.1,Y
1512035075.9,286046998.1,P
1512035095.7,286047000.9,N
1512035115.5,286047000.5,N
1512035135.3,286047000.5,N
1512035155.2,286047000.0,N
1512035175.0,286047000.5,N
1512035175.9,286047000.5,N
1512035195.7,286047002.8,N
1512035215.6,286047001.8,N
1512035235.4,286047000.3,N
1512035255.2,286047000.4,N
1512035275.1,286047002.8,N
1512035276.0,286047002.8,N
1512035295.8,286046999.3,N
1512035315.6,286047000.4,N
1512035335.5,286047002.6,N
1512035355.3,286047004.3,N
1512035375.1,286047004.1,N
1512035395.9,286047009.0,Y
1512035415.7,286047007.1,P
1512035435.5,286047005.8,N
1512035455.4,286047005.7,N
1512035475.2,286047002.2,N
1512035495.0,286047003.9,N
1512035495.9,286047003.9,N
1512035515.8,286047007.0,Y
1512035535.6,286047005.1,P
1512035555.4,286047003.7,P
1512035575.3,286047004.9,P
1512035595.1,286047005.0,Y
1512035615.8,286047002.0,P
1512035635.7,286047002.8,N
1512035655.5,286047000.1,N
1512035675.3,286047003.7,N
1512035695.2,286047002.2,N
1512035715.9,286047004.0,N
1512035735.7,286047004.3,Y
1512035755.6,286047000.5,P
1512035775.4,286047002.3,N
1512035795.2,286047001.5,N
1512035815.1,286047006.0,Y
1512035816.0,286047006.0,P
1512035835.8,286047005.6,N
1512035855.6,286047003.2,N
1512035875.5,286047003.1,N
1512035895.3,286047001.9,N
1512035915.1,286047002.4,N
1512035935.9,286047001.4,N
1512035955.7,286047003.3,N
1512035975.5,286047004.8,Y
1512035995.4,286047004.0,P
